Baku, Azerbaijan

10:32 PM +04 on September 20, 2018 (GMT +0400)
Bina

Weather History for UBBB - March, 2018

Change the Weather History Date:

Thursday, March 8, 2018

  Actual Average Record
Temperature  
Mean Temperature 49 °F -  
Max Temperature 56 °F - - ()
Min Temperature 42 °F - - ()
Degree Days  
Heating Degree Days 16    
Moisture  
Dew Point 44 °F    
Average Humidity 88    
Maximum Humidity 100    
Minimum Humidity 64    
Precipitation  
Precipitation 0.00 in - - ()
Sea Level Pressure  
Sea Level Pressure 29.71 in    
Wind  
Wind Speed 9 mph ()    
Max Wind Speed 18 mph    
Max Gust Speed -    
Visibility 4.9 miles    
Events Fog    
T = Trace of Precipitation, MM = Missing Value Source: Averaged Metar Reports

Daily Weather History Graph

Daily Weather History Graph

Search for Another Location

Airport or City:

Astronomy

Mar. 08, 2018 Rise Set
Actual Time 7:03 AM +04 6:38 PM +04
Civil Twilight 6:35 AM +04 7:05 PM +04
Nautical Twilight 6:04 AM +04 7:37 PM +04
Astronomical Twilight 5:32 AM +04 8:09 PM +04
Moon 12:23 AM +04 (3/8) 10:51 AM +04 (3/8)
Length of Visible Light 12h 29m
Length of Day
11h 35m
Waning Gibbous, 61% of the Moon is Illuminated
Mar 8
Waning Gibbous
Mar 9
Last Quarter
Mar 17
New
Mar 24
First Quarter
Mar 31
Full

Hourly Weather History & Observations

Time (+04) Temp. Windchill Dew Point Humidity Pressure Visibility Wind Dir Wind Speed Gust Speed Precip Events Conditions
12:00 AM 46.4 °F 40.4 °F 44.6 °F 93% 29.83 in 6.2 mi South 13.8 mph - N/A   Mostly Cloudy
12:30 AM 46.4 °F 40.7 °F 44.6 °F 93% 29.83 in 6.2 mi SSW 12.7 mph - N/A   Mostly Cloudy
1:00 AM 45 °F - 43 °F 91% 29.81 in 6 mi SE 11.2 mph - -   Overcast
1:00 AM 46.4 °F 41.1 °F 44.6 °F 93% 29.80 in 6.2 mi SSW 11.5 mph - N/A   Scattered Clouds
1:30 AM 46.4 °F 40.4 °F 44.6 °F 93% 29.80 in 6.2 mi SSW 13.8 mph - N/A   Mostly Cloudy
2:00 AM 44.6 °F 39.7 °F 44.6 °F 100% 29.80 in 6.2 mi South 9.2 mph - N/A   Mostly Cloudy
2:30 AM 46.4 °F 41.9 °F 44.6 °F 93% 29.77 in 6.2 mi SSW 9.2 mph - N/A   Mostly Cloudy
3:00 AM 46.4 °F 42.9 °F 44.6 °F 93% 29.77 in 6.2 mi SSW 6.9 mph - N/A   Mostly Cloudy
3:30 AM 46.4 °F 44.3 °F 44.6 °F 93% 29.77 in 6.2 mi SSW 4.6 mph - N/A   Mostly Cloudy
4:00 AM 46 °F - 44 °F 90% 29.76 in 6 mi SSE 4.5 mph - -   Overcast
4:00 AM 46.4 °F 44.3 °F 44.6 °F 93% 29.77 in 6.2 mi SW 4.6 mph - N/A   Mostly Cloudy
4:30 AM 46.4 °F 44.3 °F 44.6 °F 93% 29.74 in 4.3 mi South 4.6 mph - N/A   Overcast
5:00 AM 46.4 °F 44.3 °F 44.6 °F 93% 29.74 in 4.3 mi WNW 4.6 mph - N/A   Overcast
5:30 AM 44.6 °F 42.2 °F 42.8 °F 93% 29.74 in 4.3 mi WNW 4.6 mph - N/A   Overcast
6:00 AM 44.6 °F 43.1 °F 42.8 °F 93% 29.77 in 6.2 mi WNW 3.5 mph - N/A   Overcast
6:30 AM 44.6 °F 41.4 °F 41.0 °F 87% 29.77 in 6.2 mi WNW 5.8 mph - N/A   Overcast
7:00 AM 44 °F - 42 °F 88% 29.76 in 6 mi WSW 2.2 mph - -   Overcast
7:00 AM 44.6 °F 42.2 °F 41.0 °F 87% 29.74 in 6.2 mi WNW 4.6 mph - N/A   Overcast
7:30 AM 44.6 °F 42.2 °F 41.0 °F 87% 29.74 in 6.2 mi WNW 4.6 mph - N/A   Overcast
8:00 AM 44.6 °F 42.2 °F 41.0 °F 87% 29.74 in 6.2 mi WNW 4.6 mph - N/A   Overcast
8:30 AM 44.6 °F 43.1 °F 42.8 °F 93% 29.74 in 6.2 mi NNW 3.5 mph - N/A   Overcast
9:00 AM 46.4 °F - 42.8 °F 87% 29.74 in 5.0 mi NW 2.3 mph - N/A   Overcast
9:30 AM 46.4 °F - 42.8 °F 87% 29.74 in 3.7 mi Variable 2.3 mph - N/A   Overcast
10:00 AM 47 °F - 43 °F 82% 29.75 in 6 mi Calm Calm - -   Mist
10:00 AM 48.2 °F - 42.8 °F 82% 29.74 in 3.7 mi Variable 2.3 mph - N/A   Mostly Cloudy
10:30 AM 50.0 °F - 44.6 °F 82% 29.74 in 5.0 mi Variable 2.3 mph - N/A   Mostly Cloudy
11:00 AM 51.8 °F - 44.6 °F 76% 29.71 in 5.0 mi ENE 3.5 mph - N/A   Mostly Cloudy
11:30 AM 53.6 °F - 46.4 °F 77% 29.71 in 6.2 mi SSE 4.6 mph - N/A   Scattered Clouds
12:00 PM 55.4 °F - 48.2 °F 77% 29.71 in 6.2 mi SSE 5.8 mph - N/A   Partly Cloudy
12:30 PM 55.4 °F - 48.2 °F 77% 29.68 in - SE 8.1 mph - N/A   Clear
1:00 PM 55 °F - 46 °F 64% 29.68 in 6 mi SE 11.2 mph - -   Mostly Cloudy
1:00 PM 55.4 °F - 46.4 °F 72% 29.68 in - SSE 12.7 mph - N/A   Clear
1:30 PM 55.4 °F - 48.2 °F 77% 29.65 in - SSE 12.7 mph - N/A   Clear
2:00 PM 55.4 °F - 48.2 °F 77% 29.65 in - SSE 15.0 mph - N/A   Clear
2:30 PM 55.4 °F - 48.2 °F 77% 29.62 in - SSE 15.0 mph - N/A   Clear
3:00 PM 55.4 °F - 48.2 °F 77% 29.62 in - SSE 16.1 mph - N/A   Clear
3:30 PM 57.2 °F - 48.2 °F 72% 29.59 in - SSE 12.7 mph - N/A   Clear
4:00 PM 56 °F - 48 °F 67% 29.61 in 6 mi SE 11.2 mph - -   Mostly Cloudy
4:00 PM 57.2 °F - 48.2 °F 72% 29.62 in - WNW 12.7 mph - N/A   Clear
4:30 PM 48.2 °F - 44.6 °F 87% 29.62 in 4.3 mi NW 12.7 mph - N/A   Unknown
5:00 PM 46.4 °F 39.8 °F 44.6 °F 93% 29.62 in 1.2 mi WNW 16.1 mph - N/A Fog Overcast
5:30 PM 44.6 °F 36.9 °F 42.8 °F 93% 29.65 in 0.4 mi NW 18.4 mph - N/A Fog Fog
6:00 PM 42.8 °F 34.5 °F 42.8 °F 100% 29.68 in 0.3 mi NW 18.4 mph - N/A Fog Fog
6:30 PM 42.8 °F 34.8 °F 42.8 °F 100% 29.68 in 1.0 mi NW 17.3 mph - N/A Fog Overcast
7:00 PM 43 °F - 42 °F 94% 29.69 in 1 mi WNW 17.9 mph - -   Mist
7:00 PM 42.8 °F 34.8 °F 42.8 °F 100% 29.68 in 0.9 mi NW 17.3 mph - N/A Fog Overcast
7:30 PM 42.8 °F 35.1 °F 42.8 °F 100% 29.68 in 0.7 mi NW 16.1 mph - N/A Fog Overcast
8:00 PM 42.8 °F 35.1 °F 42.8 °F 100% 29.68 in 2.2 mi NW 16.1 mph - N/A   Overcast
8:30 PM 42.8 °F 35.8 °F 42.8 °F 100% 29.68 in 5.0 mi NNW 13.8 mph - N/A   Overcast
9:00 PM 44.6 °F 38.8 °F 42.8 °F 93% 29.68 in 6.2 mi NW 11.5 mph - N/A   Overcast
9:30 PM 42.8 °F 35.8 °F 41.0 °F 93% 29.68 in 6.2 mi NNW 13.8 mph - N/A   Overcast
10:00 PM 43 °F - 40 °F 87% 29.68 in 6 mi WNW 13.4 mph - -   Overcast
10:00 PM 42.8 °F 36.2 °F 41.0 °F 93% 29.68 in 6.2 mi NNW 12.7 mph - N/A   Overcast
10:30 PM 42.8 °F 37.0 °F 41.0 °F 93% 29.68 in 6.2 mi NNW 10.4 mph - N/A   Mostly Cloudy
11:00 PM 42.8 °F 37.0 °F 41.0 °F 93% 29.65 in 6.2 mi NW 10.4 mph - N/A   Mostly Cloudy
11:30 PM 42.8 °F 37.5 °F 41.0 °F 93% 29.65 in 6.2 mi NNW 9.2 mph - N/A   Scattered Clouds